DELTA 1 DEB, 21469

Orbit data source: Space-Track

DELTA 1 DEB, 21469 is space debris in SSO originally from a launch on Thu, 12 Jun 1975 UTC launched from the Air Force Western Test Range (AFWTR). Debris objects in space refer to the collection of defunct objects orbiting the Earth. Examples of debris include non-operational satellites, rocket bodies, and fragments generated from explosions, collisions, or faulty payload assembly.

Loading next visibility...
Identifier
21469, 1975-052FD
Orbit
SSO
Country
Flag of USUS
Related business
Manufacturer
Unknown
Mission
Spacecraft
Bus & Motor
Unknown
Mass
Unknown
Launch date (UTC)
1975-06-12 (51 years ago)
Launch vehicle
Unknown
Launch site
Air Force Western Test Range (AFWTR)
Object type
Payload
Rocket body
Debris
Shape & HBR
Unknown shape, 0.1 m
Radar Cross Section
Small (<0.1 m²)

Expand to show TLE details & history
Last TLE update: 8 hours ago

TLE from 8 hours ago
0 DELTA 1 DEB
1 21469U 75052FD  25351.25394929  .00000564  00000-0  21327-2 0  9992
2 21469  99.6936 264.1705 0368666 355.5302 155.7811 12.75151611608023
Epoch: 2025-12-17T06:05Z
TLE epoch observation values (Epoch: 2025-12-17T06:05:41.218Z)
Latitude
26.64199°
Longitude
-88.48522°
Altitude
1,626.012 km
Speed
6.94 km/s
True Right ascension
05h 56m 15s
True Declination
26° 31' 10"
Sunlit
Object was in full shadow at epoch
Visualization orbit readout
Latitude
Unknown
Longitude
Unknown
Altitude
Unknown
Speed
Unknown
Apparent Right ascension
Unknown
Apparent Declination
Unknown
Sunlit
N/A
Visualization observer readout
Local Sidereal Time
13:03:44
Azimuth
Unknown
Elevation
Unknown
Doppler factor
Unknown
Orbital elements
Apogee altitude
1,643.643 km
Perigee altitude
1,073.201 km
Semi-major axis
7,736.559 km
Eccentricity
0.03687
Inclination
99.6936°
RAAN
264.1705°
Arg. of periapsis
355.5302°
True anomaly
157.4439°
Mean anomaly
155.7811°
Eccentric anomaly
156.61934°
Mean motion
3.18949 °/min
Orbital period
112.87 mins
BSTAR
0.0021327
Loading maneuver chart data...
Computing Atmospheric mass density...
Loading historical data...
Loading historical data...
Loading historical data...
Loading historical data...
Loading historical data...
Loading historical data...
Loading historical data...

Documentation

Showing up to 5 results
|